Location: Azul
(36.7830°S, 59.8500°W)
Time: 18:38:29
(UTC-03:00)

VELOX 1 - Pass Details

Date: 31 October 2021
Orbit: 627 x 641 km, 98.3° (Epoch: 06 December)

Event Time Altitude Azimuth Distance (km) Brightness Sun altitude
Rises 04:20:33 0° 144° (SE) 2,951 ? -17.8°
Reaches altitude 10° 04:23:52 10° 118° (ESE) 2,029 ? -17.2°
Maximum altitude 04:26:05 14° 87° (E) 1,789 ? -16.8°
Drops below altitude 10° 04:28:17 10° 57° (ENE) 2,013 ? -16.5°
Sets 04:31:31 0° 30° (NNE) 2,908 ? -15.9°
